Tracking 19564 objects as of 19-Mar-2019
HD Live streaming from Space Station
objects crossing your sky now

FLOCK 3K 4

Track FLOCK 3K 4 now!
10-day predictions
FLOCK 3K 4 is classified as:


NORAD ID: 43893
Int'l Code: 2018-111T
Perigee: 485.8 km
Apogee: 518.1 km
Inclination: 97.3 °
Period: 94.5 minutes
Semi major axis: 6872 km
RCS: Unknown
Launch date: December 27, 2018
Source: United States (US)
Launch site: VOSTOCHNY COSMODROME (VOSTO)
aabbcc
Your satellite tracking list
Your tracking list is empty




NASA's NSSDC Master Catalog

Two Line Element Set (TLE):
1 43893U 18111T   19078.51313465  .00003966  00000-0  16709-3 0  9992
2 43893  97.2972 346.1592 0023470 322.3496  37.6098 15.23666756 12553
Source of the keplerian elements: AFSPC